Location: Newark
(44.4156°N, 12.1972°E)
Time: 15:46:41
(UTC+00:00)

STARLINK-1108 - Pass Details

Date: 01 February 2020
Orbit: 348 x 351 km, 53.0° (Epoch: 18 February)

Event Time Altitude Azimuth Distance (km) Brightness Sun altitude
Rises 17:29:42 0° 301° (WNW) 2,165 7.5 -12.7°
Reaches altitude 10° 17:31:44 10° 297° (WNW) 1,320 6.4 -13.1°
Maximum altitude 17:34:38 55° 218° (SW) 430 3.3 -13.6°
Enters shadow 17:37:07 13° 141° (SE) 1,160 5.0 -14.0°
